This is the latest recevied weather packets stored in our database for station/object SP1BMW-13. If no packets are shown the sender has not sent any weather packets the latest 10 day(s).
| Time | Temp. | Humidity | Pressure | Rain* | Wind** | Luminosity | Snow |
|---|---|---|---|---|---|---|---|
| 1787877077 | 17.78° C | 60% | 1015 hPa | 0 mm | 0.89 m/s, 63° | 0 W/m² | - |
| 1787877017 | 17.78° C | 60% | 1014.9 hPa | 0 mm | 0.89 m/s, 150° | 0 W/m² | - |
| 1787876957 | 17.78° C | 60% | 1014.9 hPa | 0 mm | 0.89 m/s, 0° | 0 W/m² | - |
| 1787876897 | 17.78° C | 60% | 1015 hPa | 0 mm | 0.89 m/s, 128° | 0 W/m² | - |
| 1787876837 | 17.78° C | 60% | 1014.8 hPa | 0 mm | 0.89 m/s, 88° | 0 W/m² | - |
| 1787876777 | 17.78° C | 60% | 1014.8 hPa | 0 mm | 0.45 m/s, 115° | 0 W/m² | - |
| 1787876717 | 17.78° C | 60% | 1014.8 hPa | 0 mm | 0.45 m/s, 31° | 0 W/m² | - |
| 1787876658 | 17.78° C | 60% | 1014.9 hPa | 0 mm | 3.13 m/s, 55° | 0 W/m² | - |
| 1787876597 | 17.78° C | 60% | 1014.8 hPa | 0 mm | 0.45 m/s, 44° | 0 W/m² | - |
| 1787876537 | 17.78° C | 60% | 1015 hPa | 0 mm | 1.34 m/s, 57° | 0 W/m² | - |
| 1787876477 | 17.78° C | 60% | 1014.7 hPa | 0 mm | 0.89 m/s, 38° | 0 W/m² | - |
| 1787876417 | 17.78° C | 60% | 1014.8 hPa | 0 mm | 0.45 m/s, 54° | 0 W/m² | - |
| 1787876357 | 17.78° C | 60% | 1014.8 hPa | 0 mm | 0.89 m/s, 77° | 0 W/m² | - |
| 1787876297 | 17.78° C | 60% | 1014.7 hPa | 0 mm | 0.89 m/s, 129° | 0 W/m² | - |
| 1787876237 | 17.78° C | 60% | 1014.8 hPa | 0 mm | 0 m/s | 0 W/m² | - |
| 1787876177 | 17.78° C | 60% | 1014.7 hPa | 0 mm | 0.45 m/s, 99° | 0 W/m² | - |
| 1787876117 | 17.78° C | 59% | 1014.8 hPa | 0 mm | 1.34 m/s, 62° | 0 W/m² | - |
| 1787876057 | 17.78° C | 59% | 1015 hPa | 0 mm | 0.89 m/s, 65° | 0 W/m² | - |
| 1787875997 | 17.78° C | 60% | 1015 hPa | 0 mm | 0.45 m/s, 46° | 0 W/m² | - |
| 1787875937 | 17.78° C | 59% | 1014.9 hPa | 0 mm | 0.89 m/s, 80° | 0 W/m² | - |
| 1787875877 | 17.78° C | 60% | 1015 hPa | 0 mm | 0.89 m/s, 49° | 0 W/m² | - |
| 1787875817 | 17.78° C | 59% | 1014.9 hPa | 0 mm | 0.89 m/s, 142° | 0 W/m² | - |
| 1787875757 | 17.78° C | 59% | 1015.1 hPa | 0 mm | 1.79 m/s, 9° | 0 W/m² | - |
| 1787875699 | 17.78° C | 59% | 1015 hPa | 0 mm | 1.34 m/s, 107° | 0 W/m² | - |
| 1787875637 | 17.78° C | 59% | 1015 hPa | 0 mm | 0.89 m/s, 60° | 0 W/m² | - |
* Rain latest hour (hover to see other rain measurements)
** Current wind speed in m/s (hover to see current wind gust speed)